Weather History for Kelso-Longview, WA

Change the Weather History Date:

Sunday, October 6, 2013

  Actual Average Record
Temperature  
Mean Temperature 55 °F -  
Max Temperature 71 °F 62 °F 82 °F (2014)
Min Temperature 39 °F 45 °F 32 °F (2012)
Degree Days  
Heating Degree Days 10    
Growing Degree Days 5 (Base 50)    
Moisture  
Dew Point 44 °F    
Average Humidity 70    
Maximum Humidity 93    
Minimum Humidity 38    
Precipitation  
Precipitation 0.00 in - - ()
Sea Level Pressure  
Sea Level Pressure 30.05 in    
Wind  
Wind Speed 4 mph (SSE)    
Max Wind Speed 16 mph    
Max Gust Speed 25 mph    
Visibility 10 miles    
Events      
Averages and records for this station are not official NWS values.
T = Trace of Precipitation, MM = Missing Value Source: NWS Daily Summary

Daily Weather History Graph

Daily Weather History Graph

Search for Another Location

Airport:

Trip Planner

Search our weather history database for the weather conditions in past years. The results will help you decide how hot, cold, wet, or windy it might be!

Date:

Astronomy

Oct. 06, 2013 Rise Set
Actual Time 7:17 AM PDT 6:41 PM PDT
Civil Twilight 6:47 AM PDT 7:11 PM PDT
Nautical Twilight 6:12 AM PDT 7:45 PM PDT
Astronomical Twilight 5:37 AM PDT 8:20 PM PDT
Moon 9:15 AM PDT (10/6) 7:35 PM PDT (10/6)
Length of Visible Light 12h 24m
Length of Day
11h 24m
Waxing Crescent, 4% of the Moon is Illuminated
Oct 6
Waxing Crescent
Oct 11
First Quarter
Oct 18
Full
Oct 26
Last Quarter
Nov 3
New

Hourly Weather History & Observations

Time (PDT) Temp. Dew Point Humidity Pressure Visibility Wind Dir Wind Speed Gust Speed Precip Events Conditions
12:15 AM 46.4 °F 42.8 °F 87% 30.17 in 10.0 mi Calm Calm - N/A   Clear
12:35 AM 46.4 °F 42.8 °F 87% 30.17 in 10.0 mi Calm Calm - N/A   Clear
12:55 AM 46.4 °F 42.8 °F 87% 30.17 in 10.0 mi Calm Calm - N/A   Clear
1:15 AM 46.4 °F 42.8 °F 87% 30.17 in 10.0 mi Calm Calm - N/A   Clear
1:35 AM 46.4 °F 42.8 °F 87% 30.16 in 10.0 mi Calm Calm - N/A   Clear
1:55 AM 44.6 °F 42.8 °F 93% 30.16 in 10.0 mi Calm Calm - N/A   Clear
2:15 AM 44.6 °F 42.8 °F 93% 30.16 in 9.0 mi Calm Calm - N/A   Clear
2:35 AM 44.6 °F 41.0 °F 87% 30.15 in 8.0 mi Calm Calm - N/A   Clear
2:55 AM 44.6 °F 41.0 °F 87% 30.15 in 10.0 mi Calm Calm - N/A   Clear
3:15 AM 42.8 °F 39.2 °F 87% 30.14 in 10.0 mi Calm Calm - N/A   Clear
3:35 AM 42.8 °F 39.2 °F 87% 30.13 in 10.0 mi Calm Calm - N/A   Clear
3:55 AM 42.8 °F 39.2 °F 87% 30.12 in 10.0 mi Calm Calm - N/A   Clear
4:15 AM 42.8 °F 39.2 °F 87% 30.11 in 10.0 mi Calm Calm - N/A   Clear
4:35 AM 41.0 °F 39.2 °F 93% 30.10 in 10.0 mi Calm Calm - N/A   Clear
4:55 AM 42.8 °F 39.2 °F 87% 30.10 in 10.0 mi North - - N/A   Clear
5:15 AM 41.0 °F 39.2 °F 93% 30.09 in 10.0 mi North - - N/A   Clear
5:35 AM 39.2 °F 37.4 °F 93% 30.09 in 10.0 mi North - - N/A   Clear
5:55 AM 41.0 °F 37.4 °F 87% 30.09 in 10.0 mi North - - N/A   Clear
6:15 AM 39.2 °F 37.4 °F 93% 30.09 in 8.0 mi North - - N/A   Clear
6:35 AM 39.2 °F 37.4 °F 93% 30.09 in 10.0 mi North - - N/A   Clear
6:55 AM 39.2 °F 37.4 °F 93% 30.09 in 10.0 mi North - - N/A   Clear
7:15 AM 39.2 °F 37.4 °F 93% 30.09 in 10.0 mi North - - N/A   Clear
7:35 AM 39.2 °F 37.4 °F 93% 30.09 in 10.0 mi North - - N/A   Clear
7:55 AM 39.2 °F 37.4 °F 93% 30.09 in 10.0 mi North - - N/A   Clear
8:15 AM 42.8 °F 39.2 °F 87% 30.08 in 10.0 mi North - - N/A   Clear
8:35 AM 44.6 °F 41.0 °F 87% 30.08 in 10.0 mi Calm Calm - N/A   Clear
8:55 AM 44.6 °F 42.8 °F 93% 30.08 in 10.0 mi Calm Calm - N/A   Clear
9:15 AM 48.2 °F 44.6 °F 87% 30.08 in 10.0 mi Calm Calm - N/A   Clear
9:35 AM 51.8 °F 44.6 °F 76% 30.07 in 10.0 mi SE 5.8 mph - N/A   Clear
9:55 AM 53.6 °F 44.6 °F 72% 30.07 in 10.0 mi SE 4.6 mph - N/A   Clear
10:15 AM 55.4 °F 44.6 °F 67% 30.07 in 10.0 mi SSE 9.2 mph - N/A   Clear
10:35 AM 55.4 °F 46.4 °F 72% 30.07 in 10.0 mi SE 11.5 mph 19.6 mph N/A   Clear
10:55 AM 57.2 °F 44.6 °F 63% 30.07 in 10.0 mi SE 13.8 mph - N/A   Clear
11:15 AM 59.0 °F 44.6 °F 59% 30.06 in 10.0 mi SE 9.2 mph - N/A   Clear
11:35 AM 60.8 °F 44.6 °F 55% 30.07 in 10.0 mi SE 9.2 mph 16.1 mph N/A   Clear
11:55 AM 62.6 °F 46.4 °F 55% 30.06 in 10.0 mi SSE 11.5 mph 18.4 mph N/A   Clear
12:15 PM 62.6 °F 44.6 °F 52% 30.05 in 10.0 mi SSE 16.1 mph 23.0 mph N/A   Clear
12:35 PM 64.4 °F 44.6 °F 49% 30.04 in 10.0 mi SSE 16.1 mph 23.0 mph N/A   Clear
12:55 PM 64.4 °F 46.4 °F 52% 30.02 in 10.0 mi SSE 15.0 mph 25.3 mph N/A   Clear
1:15 PM 66.2 °F 46.4 °F 49% 30.02 in 10.0 mi SSE 13.8 mph 24.2 mph N/A   Clear
1:35 PM 66.2 °F 48.2 °F 52% 30.01 in 10.0 mi SSE 15.0 mph 23.0 mph N/A   Clear
1:55 PM 68.0 °F 48.2 °F 49% 30.01 in 10.0 mi SSE 13.8 mph 20.7 mph N/A   Clear
2:15 PM 69.8 °F 48.2 °F 46% 30.00 in 10.0 mi SSE 13.8 mph 21.9 mph N/A   Clear
2:35 PM 69.8 °F 48.2 °F 46% 30.00 in 10.0 mi SSE 11.5 mph - N/A   Clear
2:55 PM 71.6 °F 46.4 °F 41% 30.00 in 10.0 mi SSE 13.8 mph 19.6 mph N/A   Clear
3:15 PM 71.6 °F 46.4 °F 41% 29.99 in 10.0 mi SSE 11.5 mph 20.7 mph N/A   Clear
3:35 PM 71.6 °F 44.6 °F 38% 29.99 in 10.0 mi SSE 16.1 mph 23.0 mph N/A   Clear
3:55 PM 71.6 °F 44.6 °F 38% 29.99 in 10.0 mi SSE 12.7 mph 21.9 mph N/A   Clear
4:15 PM 71.6 °F 44.6 °F 38% 29.98 in 10.0 mi SSE 13.8 mph 20.7 mph N/A   Clear
4:35 PM 71.6 °F 46.4 °F 41% 29.98 in 10.0 mi SSE 10.4 mph 16.1 mph N/A   Clear
4:55 PM 71.6 °F 46.4 °F 41% 29.98 in 10.0 mi SSE 5.8 mph - N/A   Clear
5:15 PM 71.6 °F 46.4 °F 41% 29.98 in 10.0 mi South 6.9 mph - N/A   Clear
5:35 PM 69.8 °F 46.4 °F 43% 29.98 in 10.0 mi South 8.1 mph - N/A   Clear
5:55 PM 69.8 °F 46.4 °F 43% 29.97 in 10.0 mi SSE 6.9 mph - N/A   Clear
6:15 PM 66.2 °F 46.4 °F 49% 29.97 in 10.0 mi South 6.9 mph - N/A   Clear
6:35 PM 64.4 °F 46.4 °F 52% 29.98 in 10.0 mi SE 4.6 mph - N/A   Clear
6:55 PM 60.8 °F 46.4 °F 59% 29.98 in 10.0 mi Calm Calm - N/A   Clear
7:15 PM 60.8 °F 46.4 °F 59% 29.98 in 10.0 mi Calm Calm - N/A   Clear
7:35 PM 57.2 °F 46.4 °F 67% 29.98 in 10.0 mi Calm Calm - N/A   Clear
7:55 PM 55.4 °F 46.4 °F 72% 29.98 in 10.0 mi Calm Calm - N/A   Clear
8:15 PM 55.4 °F 46.4 °F 72% 29.98 in 10.0 mi ENE 3.5 mph - N/A   Clear
8:35 PM 55.4 °F 46.4 °F 72% 29.98 in 10.0 mi North 3.5 mph - N/A   Clear
8:55 PM 53.6 °F 46.4 °F 77% 29.99 in 10.0 mi Calm Calm - N/A   Clear
9:15 PM 51.8 °F 46.4 °F 82% 29.99 in 10.0 mi Calm Calm - N/A   Clear
9:35 PM 51.8 °F 46.4 °F 82% 29.99 in 10.0 mi Calm Calm - N/A   Clear
9:55 PM 53.6 °F 46.4 °F 77% 29.99 in 10.0 mi SE 5.8 mph - N/A   Clear
10:15 PM 57.2 °F 44.6 °F 63% 29.99 in 10.0 mi SSE 4.6 mph - N/A   Scattered Clouds
10:35 PM 57.2 °F 44.6 °F 63% 30.00 in 10.0 mi SSE 5.8 mph - N/A   Scattered Clouds
10:55 PM 57.2 °F 42.8 °F 59% 30.00 in 10.0 mi SSE 8.1 mph - N/A   Mostly Cloudy
11:15 PM 55.4 °F 44.6 °F 67% 30.01 in 10.0 mi SSE 6.9 mph - N/A   Overcast
11:35 PM 55.4 °F 44.6 °F 67% 30.00 in 10.0 mi SE 6.9 mph - N/A   Overcast
11:55 PM 55.4 °F 44.6 °F 67% 30.00 in 10.0 mi South 4.6 mph - N/A   Overcast